Tehachapi, CA

11:51 PM PST on January 20, 2017 (GMT -0800)
Tehachapi

Weather History for KTSP - July, 2013

Change the Weather History Date:

Tuesday, July 16, 2013

  Actual Average Record
Temperature  
Mean Temperature 65 °F -  
Max Temperature 82 °F 86 °F 89 °F (2016)
Min Temperature 48 °F 59 °F 46 °F (2012)
Growing Degree Days 15 (Base 50)    
Moisture  
Dew Point 29 °F    
Average Humidity 26    
Maximum Humidity 46    
Minimum Humidity 16    
Precipitation  
Precipitation 0.00 in - - ()
Sea Level Pressure  
Sea Level Pressure 30.03 in    
Wind  
Wind Speed 6 mph (NW)    
Max Wind Speed 18 mph    
Max Gust Speed 25 mph    
Visibility 10 miles    
Events      
Averages and records for this station are not official NWS values.
T = Trace of Precipitation, MM = Missing Value Source: NWS Daily Summary

Daily Weather History Graph

Daily Weather History Graph

Search for Another Location

Airport or City:

Trip Planner

Search our weather history database for the weather conditions in past years. The results will help you decide how hot, cold, wet, or windy it might be!

Date:

Astronomy

Jul. 16, 2013 Rise Set
Actual Time 5:51 AM PDT 8:07 PM PDT
Civil Twilight 5:22 AM PDT 8:36 PM PDT
Nautical Twilight 4:47 AM PDT 9:12 PM PDT
Astronomical Twilight 4:08 AM PDT 9:50 PM PDT
Moon 1:59 PM PDT (7/16) 12:17 AM PDT (7/16)
Length of Visible Light 15h 13m
Length of Day
14h 16m
First Quarter, 57% of the Moon is Illuminated
Jul 16
First Quarter
Jul 22
Full
Jul 29
Last Quarter
Aug 6
New
Aug 14
First Quarter

Hourly Weather History & Observations

Time (PDT) Temp. Dew Point Humidity Pressure Visibility Wind Dir Wind Speed Gust Speed Precip Events Conditions
12:15 AM 62.6 °F 23.0 °F 22% 30.01 in 10.0 mi West 5.8 mph - N/A   Clear
12:35 AM 60.8 °F 24.8 °F 25% 30.00 in 10.0 mi West 6.9 mph - N/A   Clear
12:55 AM 59.0 °F 24.8 °F 27% 30.00 in 10.0 mi West 4.6 mph - N/A   Clear
1:15 AM 59.0 °F 24.8 °F 27% 30.00 in 10.0 mi WNW 6.9 mph - N/A   Clear
1:35 AM 59.0 °F 23.0 °F 25% 30.00 in 10.0 mi NW 3.5 mph - N/A   Clear
1:55 AM 60.8 °F 23.0 °F 23% 30.00 in 10.0 mi WNW 4.6 mph - N/A   Clear
2:15 AM 59.0 °F 23.0 °F 25% 30.00 in 10.0 mi WNW 4.6 mph - N/A   Clear
2:35 AM 59.0 °F 23.0 °F 25% 30.00 in 10.0 mi West 5.8 mph - N/A   Clear
2:55 AM 59.0 °F 23.0 °F 25% 30.00 in 10.0 mi NW 4.6 mph - N/A   Clear
3:15 AM 59.0 °F 23.0 °F 25% 30.00 in 10.0 mi NNW 3.5 mph - N/A   Clear
3:35 AM 55.4 °F 23.0 °F 29% 30.00 in 10.0 mi Calm Calm - N/A   Clear
3:55 AM 55.4 °F 23.0 °F 29% 30.00 in 10.0 mi NNE 3.5 mph - N/A   Clear
4:15 AM 55.4 °F 23.0 °F 29% 29.99 in 10.0 mi North 4.6 mph - N/A   Clear
4:35 AM 55.4 °F 23.0 °F 29% 29.99 in 10.0 mi North 4.6 mph - N/A   Clear
4:55 AM 50.0 °F 26.6 °F 40% 30.00 in 10.0 mi Calm Calm - N/A   Clear
5:15 AM 50.0 °F 26.6 °F 40% 30.00 in 10.0 mi Calm Calm - N/A   Clear
5:35 AM 50.0 °F 24.8 °F 37% 30.01 in 10.0 mi ESE 4.6 mph - N/A   Clear
5:55 AM 48.2 °F 28.4 °F 46% 30.01 in 10.0 mi Calm Calm - N/A   Clear
6:15 AM 48.2 °F 28.4 °F 46% 30.02 in 10.0 mi SE 4.6 mph - N/A   Clear
6:35 AM 50.0 °F 26.6 °F 40% 30.02 in 10.0 mi SE 5.8 mph - N/A   Clear
6:55 AM 53.6 °F 30.2 °F 41% 30.03 in 10.0 mi ESE 3.5 mph - N/A   Clear
7:15 AM 57.2 °F 28.4 °F 33% 30.03 in 10.0 mi Calm Calm - N/A   Clear
7:35 AM 60.8 °F 28.4 °F 29% 30.04 in 9.0 mi Calm Calm - N/A   Clear
7:55 AM 64.4 °F 28.4 °F 26% 30.04 in 10.0 mi Calm Calm - N/A   Clear
8:15 AM 68.0 °F 26.6 °F 21% 30.04 in 10.0 mi Calm Calm - N/A   Clear
8:55 AM 73.4 °F 33.8 °F 23% 30.05 in 10.0 mi West 6.9 mph - N/A   Clear
9:15 AM 73.4 °F 37.4 °F 27% 30.05 in 10.0 mi NW 8.1 mph - N/A   Clear
9:35 AM 75.2 °F 37.4 °F 25% 30.04 in 10.0 mi WNW 12.7 mph - N/A   Clear
9:55 AM 77.0 °F 35.6 °F 22% 30.04 in 10.0 mi NW 13.8 mph - N/A   Clear
10:15 AM 77.0 °F 37.4 °F 24% 30.05 in 10.0 mi NW 13.8 mph - N/A   Clear
10:35 AM 78.8 °F 37.4 °F 23% 30.05 in 10.0 mi NW 11.5 mph - N/A   Clear
10:55 AM 80.6 °F 35.6 °F 20% 30.05 in 10.0 mi NW 13.8 mph - N/A   Clear
11:15 AM 80.6 °F 33.8 °F 18% 30.05 in 10.0 mi NW 13.8 mph - N/A   Clear
11:35 AM 80.6 °F 33.8 °F 18% 30.05 in 10.0 mi NW 15.0 mph - N/A   Clear
11:55 AM 82.4 °F 33.8 °F 17% 30.06 in 10.0 mi NW 16.1 mph - N/A   Clear
12:15 PM 80.6 °F 33.8 °F 18% 30.06 in 10.0 mi NW 17.3 mph - N/A   Clear
12:35 PM 80.6 °F 32.0 °F 17% 30.06 in 10.0 mi NW 16.1 mph - N/A   Clear
1:55 PM 82.4 °F 32.0 °F 16% 30.06 in 10.0 mi NW 16.1 mph 25.3 mph N/A   Clear
2:15 PM 82.4 °F 32.0 °F 16% - 10.0 mi North - - N/A   Unknown
2:35 PM - - N/A% - 10.0 mi North - - N/A   Unknown
2:55 PM - - N/A% - - North - - N/A   Unknown
3:15 PM - - N/A% 30.05 in 10.0 mi NW 17.3 mph 21.9 mph N/A   Unknown
3:35 PM - - N/A% - - North - - N/A   Unknown
3:55 PM - - N/A% 30.04 in 10.0 mi NW 17.3 mph - N/A   Unknown
4:15 PM - - N/A% - 10.0 mi North - - N/A   Unknown
4:35 PM - - N/A% - 10.0 mi North - - N/A   Unknown
4:55 PM - - N/A% - - North - - N/A   Unknown
5:15 PM - - N/A% - - North - - N/A   Unknown
5:35 PM - - N/A% - - North - - N/A   Unknown
5:55 PM 80.6 °F 32.0 °F 17% 30.05 in 10.0 mi WNW 16.1 mph 21.9 mph N/A   Unknown
6:15 PM 80.6 °F 30.2 °F 16% 30.05 in 10.0 mi NW 18.4 mph 24.2 mph N/A   Unknown
6:35 PM - - N/A% - 10.0 mi North - - N/A   Unknown
6:55 PM - - N/A% - - North - - N/A   Unknown
7:15 PM - - N/A% - - North - - N/A   Unknown
7:35 PM - - N/A% - - North - - N/A   Unknown
7:55 PM - - N/A% - - North - - N/A   Unknown
8:15 PM - - N/A% - - North - - N/A   Unknown
8:35 PM - - N/A% - - North - - N/A   Unknown
8:55 PM - - N/A% - - North - - N/A   Unknown
9:15 PM - - N/A% - - North - - N/A   Unknown
9:35 PM - - N/A% - - North - - N/A   Unknown
9:55 PM - - N/A% - - North - - N/A   Unknown
10:15 PM - - N/A% - - North - - N/A   Unknown
10:35 PM - - N/A% - - North - - N/A   Unknown
11:15 PM - - N/A% - - North - - N/A   Unknown
11:35 PM - - N/A% - - North - - N/A   Unknown
11:55 PM - - N/A% - - North - - N/A   Unknown